Location: Riverside Cemetery
(38.3047°N, 99.7773°W)
Time: 07:44:48
(UTC+00:00)

Cosmos 1437 - Pass Details

Date: 19 September 2020
Orbit: 366 x 369 km, 81.2° (Epoch: 21 October)

Event Time Altitude Azimuth Distance (km) Brightness Sun altitude
Rises 01:50:35 0° 346° (NNW) 2,249 6.8 -14.3°
Reaches altitude 10° 01:52:35 10° 342° (NNW) 1,393 5.8 -14.6°
Maximum altitude 01:55:33 55° 264° (W) 460 3.3 -15.2°
Drops below altitude 10° 01:58:29 10° 185° (S) 1,379 5.3 -15.8°
Enters shadow 01:59:48 - 182° (S) 1,933 6.0 -16.0°
